LA9UTA-13 Weather Reports


Display with metric or nautical units.
time (UTC)temp
F
wind
direction
speed
MPH
gust
MPH
rain 1hr
in
rain 24hr
in
rain mn
in
humidity
%
barometer
mb
20260507075802 53 154 0.0 1.0 0.00 0.00 0.00 33 1016.3
20260507073802 49 138 1.0 1.0 0.00 0.00 0.00 38 1016.5
20260507071802 49 128 6.0 7.0 0.00 0.00 0.00 39 1016.5
20260507065802 48 145 3.0 4.0 0.00 0.00 0.00 40 1016.6
20260507063802 44 106 1.0 1.0 0.00 0.00 0.00 44 1016.8
20260507061802 45 152 2.0 3.0 0.00 0.00 0.00 45 1016.7
20260507055802 44 117 1.0 1.0 0.00 0.00 0.00 48 1016.8
20260507054002 43 153 2.0 2.0 0.00 0.00 0.00 48 1016.8
20260507053801 43 153 2.0 2.0 0.00 0.00 0.00 48 1016.8
20260507051802 40 131 0.0 0.0 0.00 0.00 0.00 48 1016.0
20260507045801 37 255 2.0 3.0 0.00 0.00 0.00 52 1016.2
20260507043801 36 123 0.0 1.0 0.00 0.00 0.00 53 1016.2
20260507041803 35 147 0.0 0.0 0.00 0.00 0.00 58 1016.3
20260507040702 34 163 0.0 0.0 0.00 0.00 0.00 59 1016.4
20260507035802 34 163 0.0 0.0 0.00 0.00 0.00 59 1016.4
20260507035156 34 144 0.0 1.0 0.00 0.00 0.00 56 1016.3
20260507033802 34 144 0.0 1.0 0.00 0.00 0.00 56 1016.3
20260507031802 33 173 0.0 0.0 0.00 0.00 0.00 61 1016.4
20260507025801 35 143 3.0 4.0 0.00 0.00 0.00 53 1016.3
20260507021802 32 169 1.0 1.0 0.00 0.00 0.00 64 1015.4
20260507015803 34 148 0.0 0.0 0.00 0.00 0.00 55 1015.3
20260507013801 35 325 1.0 1.0 0.00 0.00 0.00 53 1015.3
20260507011802 34 178 1.0 1.0 0.00 0.00 0.00 58 1015.4
20260507005802 34 173 2.0 2.0 0.00 0.00 0.00 58 1015.4
20260507005125 31 182 1.0 1.0 0.00 0.00 0.00 66 1015.4
20260507003802 31 182 1.0 1.0 0.00 0.00 0.00 66 1015.4
20260507001801 32 183 1.0 1.0 0.00 0.00 0.00 62 1015.4
20260506235801 33 174 1.0 1.0 0.00 0.00 0.00 62 1015.4
20260506233802 35 164 2.0 2.0 0.00 0.00 0.00 56 1015.3
20260506233614 37 173 0.0 1.0 0.00 0.00 0.00 48 1014.1
20260506231801 35 81 2.0 2.0 0.00 0.00 0.00 54 1015.3
20260506225802 37 173 0.0 0.0 0.00 0.00 0.00 51 1014.1
20260506223801 37 173 0.0 1.0 0.00 0.00 0.00 48 1014.1
20260506221802 38 143 0.0 0.0 0.00 0.00 0.00 45 1014.0
20260506215801 38 190 1.0 2.0 0.00 0.00 0.00 46 1014.0
20260506215054 39 152 1.0 1.0 0.00 0.00 0.00 46 1014.0
20260506213802 39 152 1.0 1.0 0.00 0.00 0.00 46 1014.0
20260506211801 38 163 1.0 1.0 0.00 0.00 0.00 52 1013.0
20260506205801 38 168 0.0 0.0 0.00 0.00 0.00 53 1013.0
20260506205044 39 179 0.0 0.0 0.00 0.00 0.00 52 1014.0
20260506203802 39 179 0.0 0.0 0.00 0.00 0.00 52 1014.0
20260506201802 40 180 0.0 1.0 0.00 0.00 0.00 50 1012.9
20260506195801 42 185 1.0 2.0 0.00 0.00 0.00 46 1012.8
20260506195030 44 187 2.0 2.0 0.00 0.00 0.00 41 1012.7
20260506193802 44 187 2.0 2.0 0.00 0.00 0.00 41 1012.7
20260506191802 44 261 3.0 3.0 0.00 0.00 0.00 44 1012.7
20260506191220 47 170 0.0 0.0 0.00 0.00 0.00 36 1012.5
20260506185801 47 170 0.0 0.0 0.00 0.00 0.00 36 1012.5
20260506185022 49 198 1.0 1.0 0.00 0.00 0.00 32 1012.4
20260506183801 49 198 1.0 1.0 0.00 0.00 0.00 32 1012.4
20260506181801 49 335 2.0 3.0 0.00 0.00 0.00 31 1011.4
20260506175801 50 191 3.0 3.0 0.00 0.00 0.00 30 1011.3
20260506173802 53 182 2.0 3.0 0.00 0.00 0.00 26 1011.2
20260506171801 51 247 4.0 4.0 0.00 0.00 0.00 27 1011.3
20260506165802 53 161 1.0 1.0 0.00 0.00 0.00 27 1011.2
20260506163802 55 154 0.0 0.0 0.00 0.00 0.00 27 1011.1
20260506161801 51 174 1.0 1.0 0.00 0.00 0.00 30 1011.3
20260506155802 50 173 1.0 1.0 0.00 0.00 0.00 28 1011.3
20260506153801 51 312 3.0 3.0 0.00 0.00 0.00 27 1011.3
20260506151801 51 227 3.0 3.0 0.00 0.00 0.00 29 1011.3
20260506145802 53 249 6.0 9.0 0.00 0.00 0.00 26 1011.2
20260506143802 50 136 5.0 9.0 0.00 0.00 0.00 25 1011.4
20260506141801 55 205 1.0 2.0 0.00 0.00 0.00 22 1011.1
20260506135801 53 254 5.0 8.0 0.00 0.00 0.00 23 1011.2
20260506133801 52 199 2.0 3.0 0.00 0.00 0.00 24 1012.2
20260506131801 54 160 1.0 2.0 0.00 0.00 0.00 26 1011.1
20260506125801 53 278 2.0 3.0 0.00 0.00 0.00 27 1012.2
20260506123801 53 158 4.0 4.0 0.00 0.00 0.00 28 1012.2
20260506121802 52 124 4.0 6.0 0.00 0.00 0.00 29 1012.2
20260506115801 53 179 2.0 3.0 0.00 0.00 0.00 29 1012.2
20260506113801 51 227 4.0 8.0 0.00 0.00 0.00 31 1012.3
20260506111801 50 152 0.0 1.0 0.00 0.00 0.00 31 1012.3
20260506105801 48 136 3.0 4.0 0.00 0.00 0.00 34 1012.4
20260506103802 51 114 2.0 3.0 0.00 0.00 0.00 30 1012.3
20260506101802 53 184 1.0 2.0 0.00 0.00 0.00 31 1012.2
20260506095801 51 148 0.0 0.0 0.00 0.00 0.00 32 1012.3
20260506093802 52 140 3.0 4.0 0.00 0.00 0.00 31 1012.2
20260506091801 49 135 3.0 3.0 0.00 0.00 0.00 32 1012.4
20260506085801 45 13 3.0 4.0 0.00 0.00 0.00 33 1012.6
20260506083801 46 314 4.0 4.0 0.00 0.00 0.00 35 1012.6
20260506081801 46 158 2.0 3.0 0.00 0.00 0.00 33 1013.5